Retour au catalogue

GEESAT 4-06

ActifCommunicationsLEO
NORAD 65124·PAYLOAD·🇨🇳 China

Lancé Aug 8, 2025 depuis Yellow Sea Launch Area

Loading…

Prochains Passages (prochaines 24 heures)

TLE

FraisSource: Space-Track

Époque: Sep 14, 2026, 21:26 UTC

1 65124U 25170F   26257.89362884  .00001218  00000-0  17081-3 0  9995
2 65124  49.9835 117.9311 0018676  25.9088 334.2781 14.84257842 59750

Suivez GEESAT 4-06 en temps réel avec AllMySat

Download on the App Store